Location: Shannon
(40.5500°S, 175.4167°E)
Time: 20:59:17
(UTC+00:00)

Nadezhda 3 Rocket - Pass Details

Date: 17 November 2025
Orbit: 954 x 999 km, 82.9° (Epoch: 14 December)

Event Time Altitude Azimuth Distance (km) Brightness Sun altitude
Rises 13:05:04 0° 189° (S) 3,715 8.0 -28.6°
Reaches altitude 10° 13:07:36 10° 190° (S) 2,767 7.1 -28.5°
Maximum altitude 13:13:57 77° 274° (W) 1,025 3.9 -28.1°
Enters shadow 13:14:20 74° 312° (NW) 1,037 3.9 -28.1°
